Theta_e
349 350 350 352 354 353 348 347 346 348 351 352 352 352 352 351 348 349 352 353 353 353 352 351 351 346 346 347 347 349 350 350 350 351 351 351 350 345 352 352 349 345 347
350 350 349 350 353 348 347 347 351 351 351 350 351 352 352 349 350 352 351 352 352 352 352 351 351 346 346 344 342 342 344 345 350 349 349 349 348 347 348 351 350 345 349
349 349 349 350 352 351 351 352 352 352 350 349 350 352 352 347 349 350 351 351 352 351 350 347 345 342 344 345 345 342 341 342 344 348 350 348 345 345 347 349 351 347 349
345 349 349 348 350 351 351 352 351 350 348 351 349 345 348 351 353 353 352 352 352 351 349 347 345 345 344 343 343 343 342 343 343 346 348 348 345 348 352 351 349 342 343
348 349 349 351 351 352 352 349 347 351 352 351 350 348 347 350 351 349 346 345 344 344 344 342 342 343 346 344 343 343 343 343 345 348 349 348 349 347 349 349 348 346 347
350 349 345 347 351 352 347 344 345 349 348 347 349 345 343 345 345 342 339 338 338 338 339 342 347 349 347 346 345 344 345 346 346 347 348 348 349 347 346 347 347 347 347
350 345 343 343 347 351 349 341 346 348 349 347 350 340 340 341 339 337 335 334 341 346 345 346 347 349 349 348 346 345 344 344 345 345 345 345 349 348 345 348 345 346 349
343 340 348 349 348 348 348 338 338 346 351 348 349 347 340 336 335 340 342 346 345 344 342 344 345 346 347 346 348 345 343 344 348 346 336 344 348 348 345 345 350 347 349
342 347 349 344 343 347 348 337 345 348 343 341 344 338 334 342 346 347 348 347 347 344 338 337 343 340 341 347 346 347 344 344 343 341 334 343 344 348 349 350 348 346 347
343 342 347 347 345 349 344 340 347 345 335 335 333 334 347 347 348 348 346 343 346 341 340 341 336 339 341 346 348 338 337 338 342 338 339 342 346 343 344 348 344 343 340
347 346 343 338 337 339 336 333 341 337 333 333 336 341 347 344 339 341 336 343 345 341 339 336 337 341 339 343 341 347 344 343 343 342 338 337 346 342 338 342 344 340 339
350 348 341 340 335 336 341 329 332 334 337 343 347 347 348 334 333 335 337 340 344 339 341 335 338 340 341 341 344 343 345 346 344 342 338 337 340 342 338 340 344 344 341
352 350 346 346 348 347 339 337 342 347 350 352 350 350 351 345 336 346 335 340 341 338 343 339 337 342 338 341 348 349 346 342 345 344 341 342 341 344 342 342 346 342 343
353 350 349 347 348 350 349 346 348 349 350 351 351 350 348 348 346 342 341 338 337 337 342 344 339 340 342 343 344 349 347 348 345 346 344 343 343 344 339 339 340 339 339
349 350 349 346 347 350 350 348 348 348 349 345 350 341 349 351 348 347 344 347 345 342 340 345 342 338 338 338 341 341 341 341 347 346 347 346 344 343 341 339 343 340 340
347 350 348 347 349 350 350 350 350 348 348 347 347 346 352 353 351 350 351 351 349 347 344 347 347 341 342 346 346 347 346 342 348 347 347 348 345 343 343 341 341 341 341
347 347 345 346 349 350 347 349 349 349 348 347 349 350 351 353 352 353 353 352 351 351 351 350 348 346 347 350 350 350 352 349 348 345 348 347 346 345 347 342 342 342 341
346 345 344 344 348 348 348 347 347 350 351 351 352 352 348 347 353 354 353 353 352 351 349 348 350 351 350 352 351 349 351 351 346 342 347 345 341 339 345 346 344 333 344
345 345 346 347 346 346 346 346 348 349 349 347 351 353 350 351 352 354 351 354 355 352 346 346 340 348 353 353 351 349 349 350 350 343 341 339 339 340 343 343 345 343 343
347 348 348 347 338 346 344 347 350 350 349 346 348 352 352 352 353 353 352 354 356 356 353 352 350 352 354 355 352 349 348 348 346 345 342 341 341 337 343 343 342 342 341
347 348 349 349 346 340 346 349 350 349 347 347 347 351 354 353 355 353 352 353 352 354 354 355 354 354 355 355 353 351 348 348 347 345 344 344 341 343 342 341 341 339 338
346 346 346 348 347 344 342 346 349 349 349 345 346 349 354 349 350 353 350 352 352 353 353 356 357 356 355 355 353 349 345 346 347 346 344 342 342 341 340 340 337 333 331
347 345 345 347 346 345 344 344 348 350 353 353 351 351 353 349 347 347 348 349 352 352 354 357 357 357 355 354 353 351 349 349 344 346 343 342 341 339 338 337 335 328 326
346 345 344 346 346 346 344 344 347 349 350 351 352 352 349 346 348 346 349 350 349 351 354 356 356 355 355 354 352 351 350 349 347 349 344 340 339 338 337 336 330 325 322
346 346 345 345 346 346 345 345 350 351 350 350 354 353 349 349 347 347 348 351 350 351 351 356 352 355 356 354 352 351 351 349 346 342 339 337 333 335 337 332 323 318 318
349 347 346 346 346 347 346 345 350 354 353 352 352 352 351 349 349 351 352 351 349 351 356 352 356 356 356 353 352 349 345 345 343 340 335 336 325 323 331 323 318 317 318
Wind_Speed
13 13 12 14 15 14 14 12 12 12 13 13 14 14 13 13 13 12 12 12 12 11 9 8 8 9 9 7 8 8 9 10 11 12 14 14 13 16 16 16 13 13 13
20 16 13 14 15 13 13 13 12 12 12 13 12 13 13 12 12 12 12 11 10 9 8 7 7 8 7 6 6 6 7 8 10 11 11 10 11 12 12 12 11 12 13
20 18 14 13 15 15 14 13 12 12 11 12 12 12 12 13 13 12 11 10 9 9 8 7 6 5 4 3 3 3 3 5 7 9 9 10 12 13 12 14 13 12 14
21 20 16 14 15 14 13 13 12 11 11 12 11 10 10 11 10 11 10 8 7 7 6 5 3 1 1 2 2 1 1 3 5 4 6 8 10 13 12 16 16 14 14
21 20 18 16 15 13 13 12 11 10 10 10 9 8 9 9 8 7 6 6 5 3 2 1 2 4 5 6 6 5 4 6 7 8 10 12 13 14 15 15 15 16 16
21 19 18 16 14 13 12 11 10 11 11 10 9 8 9 8 7 6 4 4 4 4 5 7 8 8 8 10 9 8 8 9 8 11 11 12 20 19 18 17 17 17 18
24 20 19 16 15 12 11 11 11 11 9 10 8 8 7 5 4 3 4 5 8 12 13 11 11 12 10 9 8 9 11 13 11 11 10 11 20 20 16 18 18 20 18
26 22 19 17 14 13 11 10 11 10 9 9 7 6 5 5 4 7 9 9 12 10 10 8 7 9 12 13 11 11 13 13 14 15 15 14 18 19 17 18 18 19 17
24 23 20 16 14 12 11 11 10 9 8 7 7 7 6 10 11 7 5 7 9 10 14 8 8 10 10 13 5 6 15 14 12 13 12 15 16 19 18 19 18 19 17
22 20 19 17 15 14 11 11 10 9 8 8 8 8 13 8 6 11 8 11 8 9 8 5 11 11 11 12 9 5 13 16 18 10 13 14 15 16 16 18 20 20 20
21 20 18 16 14 12 10 11 10 8 9 10 9 11 14 17 10 7 12 12 10 14 18 12 7 8 14 7 5 7 11 12 14 20 19 14 16 20 21 23 23 23 22
24 21 19 16 15 13 11 11 12 12 13 11 10 14 15 17 12 5 10 15 10 6 7 13 14 7 16 11 6 8 15 13 12 15 21 19 22 25 24 24 25 26 24
29 25 22 16 16 14 13 13 13 14 11 8 8 9 14 5 5 5 4 8 13 12 8 4 10 7 5 11 12 10 10 14 19 16 19 21 20 24 24 22 24 22 22
29 28 24 17 14 13 12 11 10 10 9 8 7 8 10 9 8 10 5 6 11 8 7 6 4 4 4 10 14 14 4 13 21 22 18 20 24 23 23 21 22 20 22
27 30 26 21 15 17 12 12 9 8 9 8 8 13 10 11 13 7 1 2 4 9 15 6 3 4 6 9 12 6 5 2 12 24 26 22 24 20 12 22 21 18 20
32 32 27 23 15 14 11 6 11 14 12 11 9 6 5 4 6 1 4 5 6 5 9 6 6 6 8 11 12 10 10 7 2 5 16 17 18 18 19 16 19 19 18
36 34 27 25 20 15 14 9 10 11 15 10 10 8 5 4 2 2 1 7 4 2 2 2 3 6 9 14 17 12 12 7 3 1 5 9 15 14 16 17 19 21 15
36 33 26 23 21 18 16 13 10 6 2 12 12 12 5 2 2 1 5 7 3 5 6 6 3 11 17 16 18 20 13 6 1 6 7 9 8 8 7 12 18 12 13
34 32 25 19 21 18 16 17 10 5 3 6 4 15 8 4 2 5 6 6 3 3 5 9 7 10 13 16 17 19 15 8 3 1 4 2 6 5 4 3 2 5 10
32 29 25 19 16 19 13 16 10 6 5 7 5 10 10 5 6 4 4 7 4 1 7 11 9 11 13 15 15 14 10 14 10 9 10 8 5 2 3 9 7 9 7
32 30 27 25 20 19 16 14 11 9 8 8 3 6 11 7 5 3 3 3 5 5 10 11 13 15 16 16 9 8 3 4 19 11 13 10 6 6 10 11 10 14 17
35 31 27 26 24 20 17 19 14 10 7 10 8 6 10 5 5 5 5 4 6 7 8 9 10 11 8 15 9 1 3 4 8 9 5 9 8 11 12 13 17 20 19
35 35 29 28 26 21 17 17 15 8 10 11 14 11 14 7 7 6 7 8 8 9 10 8 11 12 12 16 14 7 1 2 1 0 7 10 10 11 12 14 17 18 17
34 36 32 29 27 24 18 18 16 14 13 6 6 15 12 9 11 11 9 10 10 10 10 12 15 15 14 14 12 14 9 1 0 1 6 14 12 10 11 12 15 14 15
34 37 34 31 29 27 23 21 16 15 14 9 4 6 12 14 10 13 14 13 11 11 11 12 15 15 14 11 11 8 6 8 8 6 2 6 17 12 12 13 13 13 11
33 35 37 34 32 30 26 24 21 14 15 11 5 6 3 6 8 11 14 12 10 10 11 13 15 15 13 10 11 13 12 5 4 7 4 6 8 13 15 12 11 12 12
Wind_Direction
141 129 120 124 129 129 130 124 117 105 98 100 103 106 107 103 104 104 105 102 101 99 99 109 113 117 115 114 110 109 112 124 130 135 142 146 149 150 147 145 146 146 142
142 134 125 118 128 133 135 127 123 114 108 108 105 103 102 101 99 94 94 97 101 107 114 114 119 122 124 121 110 113 127 130 137 143 147 150 154 160 159 156 158 149 149
139 137 130 127 125 131 135 134 124 117 115 112 101 99 100 104 103 101 99 103 110 114 116 121 130 138 142 137 129 114 124 151 163 160 159 169 172 173 173 183 170 165 165
138 138 136 134 129 129 129 129 125 122 113 108 105 112 112 106 106 103 110 115 112 113 120 128 143 199 254 297 300 258 193 197 190 192 193 198 191 189 174 170 177 176 174
141 140 136 130 129 129 131 123 124 116 112 107 105 105 107 112 105 102 111 109 109 103 89 62 290 295 311 307 312 303 265 220 214 217 221 218 206 206 192 188 189 179 179
145 144 139 139 134 137 131 132 127 126 121 114 119 117 123 130 123 115 107 88 66 26 349 329 321 319 338 333 333 316 290 269 241 236 236 241 203 204 200 192 188 185 187
148 145 140 140 140 144 138 133 132 127 117 119 118 120 118 111 94 92 73 56 37 20 7 355 343 355 352 329 311 297 284 267 257 254 230 216 195 203 206 193 192 192 194
149 147 145 145 144 146 145 141 140 131 129 127 119 110 108 105 66 26 16 24 47 41 357 318 314 351 351 344 322 312 284 278 284 247 249 220 214 208 213 205 204 197 194
147 147 147 150 151 151 145 143 141 135 135 129 121 108 90 39 22 4 13 39 72 80 35 45 36 27 30 15 342 326 295 267 296 252 228 224 214 214 210 209 210 207 205
149 152 153 151 155 157 153 151 141 140 134 132 126 115 63 41 31 24 32 87 128 47 32 37 79 38 19 52 85 131 311 265 261 277 250 252 233 221 215 223 221 217 214
153 156 158 161 165 162 156 156 153 147 134 127 119 91 84 59 51 53 44 87 129 107 69 92 77 30 40 62 185 259 240 291 293 263 257 269 236 226 217 219 220 221 218
161 160 152 150 156 160 156 153 148 136 130 127 120 107 120 81 139 64 68 114 135 73 102 61 63 81 60 40 60 255 253 262 286 259 253 257 246 229 224 220 221 219 217
165 161 160 152 153 155 156 155 149 145 145 136 129 150 143 69 41 60 12 138 122 62 121 83 69 57 69 39 17 352 260 246 248 236 253 249 247 227 230 234 234 228 224
171 168 163 158 166 174 173 165 162 168 168 164 157 151 143 142 125 168 189 191 248 261 326 25 69 354 315 307 321 316 309 243 247 235 244 244 234 227 233 232 228 232 229
170 174 169 163 181 189 206 205 213 197 181 178 170 159 135 150 161 137 93 306 308 244 250 291 301 323 318 333 336 290 270 356 249 242 246 257 241 229 252 253 248 241 236
172 171 167 162 179 170 174 182 214 199 185 182 183 158 149 124 127 112 350 329 287 249 247 283 300 315 351 342 335 357 348 330 312 284 258 245 226 227 254 239 243 246 249
171 168 170 170 170 173 183 163 147 202 207 203 205 200 192 189 164 20 39 2 336 117 98 289 313 319 341 14 16 8 353 326 308 313 223 218 230 252 256 243 254 255 248
167 168 171 180 185 191 183 185 171 159 227 222 233 224 200 183 175 311 309 343 7 92 40 347 354 15 25 8 3 4 7 334 261 88 137 152 171 228 257 261 264 264 266
169 169 171 180 194 194 196 192 193 198 241 204 236 227 207 194 236 261 344 24 122 177 5 9 7 14 12 4 1 7 12 51 24 340 53 68 60 213 303 311 333 280 289
173 174 172 169 176 187 193 190 197 211 244 238 258 218 206 192 238 233 356 42 57 266 344 15 19 21 9 2 2 12 43 56 37 46 54 30 15 222 30 36 34 81 68
175 174 177 175 176 181 189 199 207 213 234 237 189 168 205 217 160 226 358 350 351 3 4 14 20 12 15 8 356 357 63 48 31 41 51 42 48 76 70 62 76 85 87
178 180 180 182 179 184 190 199 211 229 234 248 251 258 210 224 273 256 279 294 329 336 351 1 15 20 1 16 357 22 358 322 39 56 56 30 44 81 89 95 89 89 95
178 183 182 183 183 186 194 202 217 242 263 290 246 234 213 261 284 282 279 286 311 327 338 6 15 10 8 11 21 37 358 270 342 177 42 39 82 89 87 99 97 95 88
182 187 187 185 187 189 194 206 218 238 267 271 204 204 229 262 270 279 283 288 315 324 341 357 4 6 7 6 22 16 48 53 6 349 56 68 83 100 109 109 100 86 79
181 187 192 190 190 193 197 205 214 236 252 266 9 271 252 253 273 282 287 279 308 328 346 359 4 8 9 17 31 33 62 54 60 62 40 41 86 94 128 119 95 83 66
183 184 193 195 195 196 200 206 211 226 242 250 270 343 286 253 289 319 322 290 299 330 354 4 7 6 10 19 71 63 74 81 45 61 74 65 93 78 108 107 86 70 46